[[{"header":{"parameterUnit":"m.s-1","parameterCategory":2,"la1":30.2992,"la2":30.254,"lo1":-89.0895,"lo2":-89.0443,"dy":0.0025,"dx":0.0025,"nx":19,"ny":19,"refTime":"2026-05-03T03:00:00:Z","depth":"0","parameterNumber":2,"parameterNumberName":"U-component_of_CURRENTS"},"data":[0,0,0,0.2983,0.2985,0.3065,0.3065,0.3129,0.3129,0,0,0,0,0,0,0,0,0,0,0,0.2946,0.2946,0.2983,0.2985,0.3065,0.3065,0.3129,0.3129,0,0,0,0,0,0,0,0,0,0,0,0.2945,0.2946,0.2947,0.2986,0.3065,0.3065,0.3129,0.3075,0,0,0,0,0,0,0,0,0,0,0.3001,0.2969,0.2946,0.2947,0.2986,0.3064,0.3065,0.3072,0.3078,0.3086,0,0.3105,0,0.3129,0.3134,0.3134,0,0,0,0.2971,0.2965,0.2998,0.2947,0.2987,0.3064,0.3025,0.3076,0.3082,0.3094,0.3106,0.3109,0.313,0.3135,0.3135,0.3255,0.3256,0,0,0.2967,0.2947,0.2994,0.3003,0.3016,0.3022,0.3028,0.308,0.3082,0.3106,0.3111,0.3131,0.3135,0.3136,0.3254,0.3255,0,0,0,0.2964,0.2944,0.2976,0.2999,0.3023,0.3025,0.3031,0.3079,0.3094,0.3112,0.3132,0.3135,0.3136,0.3253,0.3254,0.3304,0,0,0,0.296,0.2944,0.2974,0.2961,0.3022,0.3056,0.3028,0.3089,0.3097,0.3132,0.3135,0.3137,0.3252,0.3254,0.33,0.331,0,0,0,0.2941,0.2941,0.2955,0.296,0.3004,0.3056,0.3073,0.3091,0.311,0.3134,0.3137,0.3252,0.3254,0.3298,0.3306,0.3415,0,0,0,0.291,0.2931,0.2955,0.2991,0.3003,0.3083,0.3073,0.3115,0.3137,0.3136,0.3253,0.3254,0.3297,0.3303,0.3411,0.3421,0.344,0,0,0.2919,0.2932,0.2956,0.298,0.3053,0.307,0.3152,0.3166,0.3171,0.3228,0.3231,0.3301,0.3306,0.3414,0.3529,0.3545,0,0,0,0.2949,0.2967,0.2995,0.3042,0.3102,0.3164,0.3194,0.3223,0.3276,0.3198,0.3326,0.3327,0.3395,0.3393,0.3406,0.345,0.3263,0.3263,0.3263,0.2917,0.2967,0.3012,0.3083,0.3142,0.323,0.3287,0.3335,0.3329,0.3367,0.3386,0.3523,0.3522,0.3532,0.3578,0.3414,0.3414,0.3414,0.3414,0.2922,0.2944,0.302,0.3077,0.3164,0.3234,0.3372,0.3397,0.3519,0.3465,0.353,0.3466,0.3549,0.3593,0.3418,0.3417,0.3417,0.3416,0.3416,0.288,0.2898,0.2939,0.3027,0.3122,0.3239,0.338,0.349,0.3555,0.3619,0.3664,0.3663,0.3688,0.3674,0.3675,0.3676,0.3676,0.3676,0.3677,0.2805,0.2856,0.2883,0.299,0.3043,0.3185,0.3399,0.3507,0.3675,0.3725,0.3726,0.3748,0.3604,0.3578,0.3685,0.3684,0.3683,0.3682,0.3681,0.2749,0.2775,0.2814,0.2858,0.2992,0.3081,0.3326,0.3577,0.3735,0.3814,0.3914,0.3803,0.3799,0.3787,0.3767,0.3917,0.3917,0.3917,0.3917,0.2695,0.2718,0.274,0.2783,0.2881,0.3026,0.3163,0.3427,0.3789,0.3947,0.4038,0.397,0.3958,0.3958,0.3943,0.3925,0.4111,0.4112,0.4112,0.2652,0.2673,0.2651,0.2705,0.2801,0.2917,0.2996,0.324,0.3807,0.4124,0.4108,0.4099,0.3998,0.3976,0.3967,0.3942,0.3907,0,0]},{"header":{"parameterUnit":"m.s-1","parameterCategory":2,"la1":30.2992,"la2":30.254,"lo1":-89.0895,"lo2":-89.0443,"dy":0.0025,"dx":0.0025,"nx":19,"ny":19,"refTime":"2026-05-03T03:00:00:Z","depth":"0","parameterNumber":3,"parameterNumberName":"V-component_of_CURRENTS"},"data":[0,0,0,-0.0124,-0.0124,-0.0165,-0.0166,-0.0227,-0.0228,0,0,0,0,0,0,0,0,0,0,0,-0.0108,-0.0108,-0.0124,-0.0124,-0.0165,-0.0166,-0.0227,-0.0228,0,0,0,0,0,0,0,0,0,0,0,-0.0108,-0.0108,-0.0108,-0.0124,-0.0165,-0.0166,-0.0227,-0.0196,0,0,0,0,0,0,0,0,0,0,-0.0155,-0.0134,-0.0108,-0.0108,-0.0125,-0.0165,-0.0166,-0.0194,-0.0198,-0.0208,0,-0.0208,0,-0.0217,-0.0231,-0.0231,0,0,0,-0.0133,-0.0131,-0.0143,-0.0108,-0.0125,-0.0165,-0.0149,-0.0196,-0.02,-0.0213,-0.0209,-0.0211,-0.0218,-0.0231,-0.0232,-0.0218,-0.0217,0,0,-0.013,-0.0117,-0.0141,-0.0146,-0.0127,-0.0148,-0.015,-0.0198,-0.0198,-0.0209,-0.0213,-0.0219,-0.0232,-0.0232,-0.0218,-0.0218,0,0,0,-0.0118,-0.0115,-0.0127,-0.0143,-0.0148,-0.0149,-0.0152,-0.0196,-0.02,-0.0214,-0.0219,-0.0232,-0.0233,-0.0219,-0.0218,-0.0104,0,0,0,-0.0117,-0.0108,-0.0125,-0.0118,-0.0147,-0.0171,-0.0148,-0.0197,-0.0203,-0.0219,-0.0232,-0.0233,-0.0219,-0.0218,-0.0108,-0.0031,0,0,0,-0.0107,-0.0107,-0.0109,-0.0117,-0.0132,-0.017,-0.0177,-0.0198,-0.0206,-0.0231,-0.0233,-0.022,-0.0219,-0.0112,-0.0039,0.0012,0,0,0,-0.0097,-0.0062,-0.0109,-0.007,-0.0131,-0.0107,-0.0177,-0.0176,-0.019,-0.0232,-0.0219,-0.0218,-0.0113,-0.0044,0.0007,0.0112,0.0142,0,0,-0.0039,-0.0055,-0.003,-0.0072,-0.0011,-0.0102,-0.0053,-0.0113,-0.0176,-0.0207,-0.0207,-0.0107,-0.0039,0.0011,0.0187,0.0216,0,0,0,-0.0001,0.0022,0.0031,0.0049,0.0037,0.0042,-0.0029,-0.0064,-0.0098,-0.0178,-0.0112,-0.0073,-0.0045,0.0008,0.003,-0.0114,-0.0212,-0.0212,-0.0212,0.0102,0.0101,0.0164,0.0166,0.0173,0.0136,0.0128,0.0065,-0.0017,-0.0018,0.0015,0.0129,0.0187,0.0205,0.0054,-0.0006,-0.0006,-0.0005,-0.0005,0.0221,0.0267,0.0265,0.032,0.0311,0.0329,0.0274,0.0216,0.0203,0.0114,0.0134,0.012,0.0237,0.0067,0.0002,0.0001,0.0,-0.0001,-0.0001,0.0297,0.0325,0.0343,0.0423,0.0478,0.045,0.0527,0.0446,0.0325,0.0353,0.0373,0.0372,0.0226,0.035,0.035,0.0351,0.0351,0.0352,0.0352,0.0367,0.0396,0.0471,0.054,0.0604,0.0683,0.0677,0.0677,0.0617,0.053,0.0529,0.0261,0.0237,0.0227,0.0361,0.036,0.0358,0.0358,0.0357,0.0477,0.0474,0.0603,0.0676,0.0842,0.1016,0.0981,0.1004,0.0943,0.0936,0.0544,0.0605,0.0579,0.056,0.0557,0.0769,0.0769,0.0769,0.0769,0.0545,0.0555,0.0736,0.0884,0.1064,0.1178,0.1388,0.1355,0.102,0.0813,0.0628,0.0544,0.0533,0.0495,0.0478,0.0469,0.0653,0.0652,0.0652,0.0628,0.0673,0.0823,0.0958,0.1167,0.1373,0.1602,0.1666,0.1101,0.0624,0.0407,0.0412,0.0255,0.0251,0.016,0.0147,0.0119,0,0]}],[{"header":{"parameterUnit":"m.s-1","parameterCategory":2,"la1":30.2992,"la2":30.254,"lo1":-89.0895,"lo2":-89.0443,"dy":0.0025,"dx":0.0025,"nx":19,"ny":19,"refTime":"2026-05-03T03:00:00:Z","depth":"2","parameterNumber":2,"parameterNumberName":"U-component_of_CURRENTS"},"data":[0,0,0,0.2908,0.291,0.2995,0.2995,0.3061,0.3062,0,0,0,0,0,0,0,0,0,0,0,0.287,0.2871,0.2908,0.291,0.2995,0.2995,0.3061,0.3062,0,0,0,0,0,0,0,0,0,0,0,0.287,0.287,0.2871,0.2911,0.2995,0.2995,0.3061,0.3004,0,0,0,0,0,0,0,0,0,0,0.2926,0.2895,0.287,0.2871,0.2911,0.2995,0.2995,0.3002,0.3008,0.3015,0,0.3035,0,0.306,0.3067,0.3067,0,0,0,0.2897,0.289,0.2925,0.2872,0.2912,0.2995,0.2953,0.3005,0.3012,0.3023,0.3037,0.304,0.3061,0.3067,0.3068,0.3186,0.3187,0,0,0.2892,0.2873,0.292,0.2929,0.2944,0.295,0.2956,0.301,0.3013,0.3037,0.3042,0.3062,0.3068,0.3068,0.3185,0.3186,0,0,0,0.2888,0.2869,0.2903,0.2925,0.295,0.2953,0.2959,0.301,0.3025,0.3043,0.3063,0.3068,0.3069,0.3184,0.3185,0.3236,0,0,0,0.2884,0.2868,0.29,0.2888,0.295,0.2987,0.2958,0.3021,0.3028,0.3063,0.3068,0.307,0.3183,0.3185,0.3232,0.3243,0,0,0,0.2864,0.2866,0.2881,0.2887,0.2933,0.2987,0.3003,0.3023,0.3041,0.3067,0.307,0.3183,0.3185,0.323,0.3238,0.3344,0,0,0,0.2834,0.2857,0.2881,0.2918,0.2932,0.3011,0.3003,0.3047,0.307,0.3068,0.3184,0.3185,0.3229,0.3236,0.334,0.3327,0.3344,0,0,0.2845,0.2858,0.2882,0.2906,0.2978,0.2998,0.308,0.3097,0.3103,0.3158,0.3161,0.3233,0.3238,0.3343,0.3433,0.3447,0,0,0,0.2874,0.2893,0.2921,0.2968,0.3027,0.309,0.3122,0.3152,0.3207,0.313,0.3257,0.3258,0.3323,0.3308,0.3319,0.3194,0.3194,0.3194,0.3193,0.2847,0.2894,0.2939,0.3009,0.3068,0.3155,0.3213,0.3262,0.3258,0.3297,0.3317,0.3451,0.3435,0.3444,0.3344,0.3344,0.3344,0.3344,0.3344,0.2854,0.2875,0.2949,0.3006,0.3092,0.3163,0.3298,0.3325,0.3446,0.3395,0.3457,0.3382,0.3459,0.3349,0.3348,0.3347,0.3347,0.3347,0.3346,0.2814,0.2832,0.2873,0.2961,0.3055,0.3171,0.3308,0.3419,0.3483,0.3546,0.3575,0.3573,0.3489,0.3601,0.3601,0.3602,0.3602,0.3603,0.3603,0.2743,0.2793,0.2822,0.2928,0.2981,0.3121,0.3331,0.3436,0.3591,0.3633,0.3634,0.3539,0.353,0.3506,0.3611,0.361,0.3609,0.3608,0.3607,0.269,0.2717,0.2755,0.28,0.2932,0.3002,0.3253,0.3486,0.3641,0.3709,0.3705,0.37,0.3691,0.3681,0.3661,0.3801,0.3801,0.3801,0.3801,0.2638,0.2662,0.2685,0.2727,0.2822,0.2942,0.3019,0.3175,0.3447,0.3519,0.353,0.3424,0.3425,0.3394,0.339,0.336,0.3422,0.3421,0.3419,0.2598,0.2618,0.2599,0.265,0.2742,0.2816,0.2781,0.2737,0.301,0.3391,0.3324,0.3802,0.3675,0.3665,0.3637,0.3623,0.3583,0,0]},{"header":{"parameterUnit":"m.s-1","parameterCategory":2,"la1":30.2992,"la2":30.254,"lo1":-89.0895,"lo2":-89.0443,"dy":0.0025,"dx":0.0025,"nx":19,"ny":19,"refTime":"2026-05-03T03:00:00:Z","depth":"2","parameterNumber":3,"parameterNumberName":"V-component_of_CURRENTS"},"data":[0,0,0,-0.0035,-0.0036,-0.0081,-0.0081,-0.014,-0.0141,0,0,0,0,0,0,0,0,0,0,0,-0.0019,-0.0019,-0.0035,-0.0036,-0.0081,-0.0081,-0.014,-0.0141,0,0,0,0,0,0,0,0,0,0,0,-0.0019,-0.0019,-0.0019,-0.0036,-0.0081,-0.0081,-0.014,-0.0108,0,0,0,0,0,0,0,0,0,0,-0.0065,-0.0045,-0.0019,-0.0019,-0.0036,-0.0081,-0.0081,-0.0106,-0.011,-0.0118,0,-0.0119,0,-0.0129,-0.0144,-0.0144,0,0,0,-0.0044,-0.0042,-0.0054,-0.0019,-0.0037,-0.008,-0.0063,-0.0108,-0.0112,-0.0123,-0.012,-0.0123,-0.013,-0.0144,-0.0145,-0.0129,-0.0129,0,0,-0.0042,-0.0029,-0.0051,-0.0056,-0.0041,-0.0061,-0.0064,-0.0111,-0.0111,-0.0121,-0.0124,-0.0131,-0.0145,-0.0145,-0.013,-0.0129,0,0,0,-0.0029,-0.0027,-0.0039,-0.0054,-0.006,-0.0062,-0.0066,-0.0109,-0.0113,-0.0125,-0.0131,-0.0145,-0.0145,-0.013,-0.0129,-0.0019,0,0,0,-0.0028,-0.0019,-0.0037,-0.0031,-0.0059,-0.0084,-0.0063,-0.011,-0.0116,-0.0131,-0.0145,-0.0146,-0.0131,-0.013,-0.0024,0.0052,0,0,0,-0.0018,-0.0018,-0.0021,-0.003,-0.0046,-0.0084,-0.0091,-0.0112,-0.0119,-0.0144,-0.0146,-0.0131,-0.013,-0.0027,0.0044,0.0092,0,0,0,-0.0007,0.0026,-0.0021,0.0016,-0.0045,-0.0021,-0.0091,-0.0091,-0.0104,-0.0145,-0.0131,-0.0129,-0.0029,0.004,0.0087,0.0182,0.021,0,0,0.0049,0.0032,0.0057,0.0015,0.0074,-0.0016,0.0032,-0.0028,-0.009,-0.0119,-0.0119,-0.0022,0.0044,0.0091,0.0255,0.0282,0,0,0,0.0086,0.0108,0.0117,0.0133,0.0121,0.0125,0.0055,0.002,-0.0015,-0.0092,-0.0027,0.0012,0.0037,0.0084,0.0106,-0.0123,-0.0123,-0.0124,-0.0124,0.0183,0.0183,0.0245,0.0248,0.0255,0.0217,0.0209,0.0147,0.0067,0.0064,0.0097,0.0206,0.0257,0.0274,0.0075,0.0076,0.0076,0.0076,0.0077,0.0299,0.0344,0.0344,0.0398,0.0388,0.0405,0.0352,0.0294,0.0279,0.0193,0.0211,0.0193,0.0305,0.0085,0.0084,0.0083,0.0082,0.0081,0.008,0.0371,0.04,0.0417,0.0497,0.0551,0.0523,0.0598,0.0518,0.0397,0.0424,0.0436,0.0435,0.0281,0.0418,0.0419,0.0419,0.042,0.042,0.0421,0.0439,0.0468,0.0541,0.061,0.0672,0.0749,0.0743,0.0741,0.0676,0.0588,0.0587,0.0321,0.031,0.03,0.0429,0.0428,0.0427,0.0426,0.0425,0.0545,0.0542,0.0669,0.074,0.0904,0.1069,0.1038,0.1051,0.0989,0.0976,0.0665,0.0656,0.0631,0.0613,0.0609,0.0811,0.0811,0.0811,0.0811,0.0611,0.062,0.0798,0.0943,0.112,0.1226,0.1404,0.133,0.1118,0.0954,0.0947,0.0889,0.0871,0.0852,0.0829,0.0826,0.1085,0.1086,0.1086,0.0692,0.0736,0.0882,0.1015,0.1221,0.141,0.1585,0.1504,0.1182,0.1092,0.0943,0.084,0.0732,0.0713,0.0658,0.0631,0.0616,0,0]}],[{"header":{"parameterUnit":"m.s-1","parameterCategory":2,"la1":30.2992,"la2":30.254,"lo1":-89.0895,"lo2":-89.0443,"dy":0.0025,"dx":0.0025,"nx":19,"ny":19,"refTime":"2026-05-03T03:00:00:Z","depth":"4","parameterNumber":2,"parameterNumberName":"U-component_of_CURRENTS"},"data":[0,0,0,0.1961,0.1965,0.2182,0.2183,0.2349,0.235,0,0,0,0,0,0,0,0,0,0,0,0.1891,0.1893,0.196,0.1966,0.2182,0.2183,0.2349,0.235,0,0,0,0,0,0,0,0,0,0,0,0.189,0.1893,0.1895,0.1966,0.2181,0.2183,0.2349,0.2212,0,0,0,0,0,0,0,0,0,0,0.2016,0.1969,0.1892,0.1895,0.1968,0.2181,0.2183,0.2207,0.2221,0.222,0,0.227,0,0.2311,0.2359,0.236,0,0,0,0.1964,0.1958,0.2016,0.1895,0.197,0.2181,0.2084,0.2216,0.2231,0.2238,0.2272,0.2279,0.2314,0.236,0.2361,0.2524,0.2525,0,0,0.1952,0.1927,0.2005,0.2026,0.2045,0.2077,0.209,0.2226,0.2248,0.2273,0.2284,0.2317,0.2361,0.2362,0.2523,0.2524,0,0,0,0.1919,0.1919,0.1976,0.2018,0.2065,0.2083,0.2099,0.2242,0.2262,0.2286,0.2319,0.2362,0.2363,0.2522,0.2524,0.2579,0,0,0,0.1912,0.19,0.197,0.1957,0.2064,0.2172,0.2111,0.2253,0.227,0.2318,0.2362,0.2365,0.2521,0.2523,0.2576,0.2586,0,0,0,0.1878,0.1896,0.1927,0.1955,0.205,0.2171,0.22,0.2258,0.2289,0.236,0.2365,0.2521,0.2523,0.2573,0.2582,0.2669,0,0,0,0.1835,0.188,0.1927,0.1993,0.2048,0.2173,0.22,0.2304,0.2368,0.2362,0.2522,0.2523,0.2572,0.2579,0.2666,0.2328,0,0,0,0.1855,0.1882,0.1919,0.1966,0.2071,0.2142,0.2266,0.2361,0.2394,0.2466,0.2472,0.2577,0.2581,0.2669,0.2443,0,0,0,0,0.1901,0.1933,0.1973,0.2055,0.2148,0.2258,0.2358,0.2412,0.2526,0.2443,0.26,0.2601,0.2655,0.2448,0.2533,0.2532,0.2532,0.2532,0.2532,0.1878,0.194,0.201,0.2107,0.22,0.235,0.2444,0.2539,0.2565,0.2632,0.2665,0.279,0.2573,0.2692,0.2692,0.2693,0.2693,0.2693,0.2693,0.1886,0.1916,0.203,0.2124,0.2253,0.2374,0.2547,0.2608,0.2764,0.274,0.2791,0.2541,0.2699,0.2698,0.2697,0.2697,0.2696,0.2696,0.2695,0.1834,0.1856,0.1945,0.2089,0.2243,0.2409,0.2558,0.2711,0.2808,0.2877,0.27,0.2845,0.2822,0.2933,0.2934,0.2934,0.2935,0.2935,0.2935,0.1727,0.1815,0.189,0.206,0.2161,0.2341,0.2595,0.2686,0.2836,0.2728,0.2918,0.2871,0.2863,0.2838,0.2942,0.2941,0.294,0.2939,0.2939,0.1637,0.1701,0.1787,0.1884,0.209,0.2196,0.2477,0.2578,0.2664,0.2641,0.2654,0.2666,0.2621,0.262,0.2583,0.2616,0.2612,0.2609,0,0.156,0.1601,0.1694,0.1787,0.189,0.2093,0.2123,0.227,0.2412,0.2332,0.2664,0.2675,0.2682,0.2626,0.2619,0.2571,0,0,0,0.15,0.1543,0.1565,0.1678,0.1775,0.1905,0.2116,0.2093,0.2389,0.2364,0.251,0.2536,0.2763,0.2963,0.2924,0.2914,0.2871,0,0]},{"header":{"parameterUnit":"m.s-1","parameterCategory":2,"la1":30.2992,"la2":30.254,"lo1":-89.0895,"lo2":-89.0443,"dy":0.0025,"dx":0.0025,"nx":19,"ny":19,"refTime":"2026-05-03T03:00:00:Z","depth":"4","parameterNumber":3,"parameterNumberName":"V-component_of_CURRENTS"},"data":[0,0,0,0.0156,0.0156,0.0114,0.0114,0.0059,0.0058,0,0,0,0,0,0,0,0,0,0,0,0.0172,0.0172,0.0157,0.0156,0.0114,0.0114,0.0059,0.0058,0,0,0,0,0,0,0,0,0,0,0,0.0172,0.0172,0.0172,0.0156,0.0114,0.0114,0.0059,0.0089,0,0,0,0,0,0,0,0,0,0,0.0129,0.0148,0.0172,0.0172,0.0155,0.0114,0.0114,0.009,0.0087,0.0079,0,0.0079,0,0.007,0.0055,0.0055,0,0,0,0.0148,0.0151,0.0139,0.0172,0.0155,0.0114,0.0131,0.0088,0.0085,0.0075,0.0078,0.0076,0.0069,0.0055,0.0055,0.0057,0.0057,0,0,0.015,0.0163,0.0142,0.0137,0.0152,0.0132,0.013,0.0086,0.0086,0.0078,0.0074,0.0068,0.0055,0.0054,0.0057,0.0057,0,0,0,0.0162,0.0164,0.0153,0.014,0.0134,0.0131,0.0128,0.0088,0.0084,0.0074,0.0067,0.0054,0.0054,0.0056,0.0057,0.0144,0,0,0,0.0163,0.0172,0.0155,0.0161,0.0135,0.0111,0.0131,0.0087,0.0082,0.0068,0.0054,0.0053,0.0056,0.0057,0.014,0.0203,0,0,0,0.0173,0.0173,0.017,0.0162,0.0147,0.0111,0.0105,0.0085,0.0078,0.0055,0.0053,0.0056,0.0056,0.0138,0.0197,0.0221,0,0,0,0.0183,0.0206,0.017,0.0196,0.0148,0.016,0.0105,0.01,0.0087,0.0054,0.0056,0.0057,0.0137,0.0193,0.0217,0.0245,0,0,0,0.0223,0.0211,0.0227,0.0195,0.0236,0.0165,0.0195,0.0146,0.0095,0.0068,0.0067,0.0141,0.0196,0.022,0.0295,0,0,0,0,0.0248,0.0264,0.0269,0.0279,0.0267,0.0267,0.0209,0.018,0.0148,0.0092,0.0135,0.0167,0.0179,0.0184,0.0061,0.0061,0.0061,0.0061,0.0061,0.0318,0.0317,0.0362,0.0363,0.0366,0.0333,0.0323,0.0271,0.0209,0.0204,0.0232,0.0306,0.0315,0.021,0.0211,0.0211,0.0212,0.0212,0.0212,0.0398,0.043,0.0434,0.0475,0.0469,0.048,0.043,0.0384,0.0365,0.0304,0.0309,0.0269,0.022,0.0219,0.0217,0.0217,0.0216,0.0215,0.0215,0.0446,0.0467,0.0488,0.0552,0.0597,0.0575,0.0622,0.0561,0.0459,0.0475,0.0448,0.0364,0.0363,0.0464,0.0465,0.0465,0.0465,0.0466,0.0466,0.0487,0.0515,0.0576,0.0637,0.0691,0.0747,0.074,0.072,0.0622,0.0569,0.0502,0.039,0.0382,0.0376,0.0472,0.0471,0.047,0.0469,0.0469,0.0549,0.0559,0.0658,0.0721,0.085,0.0898,0.0899,0.083,0.0808,0.0738,0.0598,0.059,0.056,0.0548,0.0546,0.0696,0.0697,0.0698,0,0.0589,0.0601,0.0738,0.0853,0.0966,0.0992,0.0997,0.0951,0.0808,0.0794,0.0781,0.0626,0.0618,0.0585,0.0575,0.0576,0,0,0,0.0636,0.0674,0.0779,0.0888,0.1016,0.1011,0.0998,0.096,0.0835,0.0807,0.0717,0.0712,0.0614,0.049,0.0425,0.0415,0.0402,0,0]}]]